Regional Weather Roundup
Issued by NWS Bismarck, ND

Home | Current Version | Previous Version | Text Only | Print | Product List | Glossary On
Versions: 1 2 3 4 5 6 7 8 9 10 11 12 13 14 15 16 17 18 19 20 21 22 23 24 25 26 27 28 29 30 31 32 33 34 35 36 37 38 39 40 41 42 43 44 45 46 47 48 49 50
000
ASUS43 KBIS 232310
RWRBIS

NWR BROADCAST TEXT
NATIONAL WEATHER SERVICE BISMARCK ND
600 PM CDT SUN JUL 23 2017

NOTE: "FAIR" INDICATES FEW OR NO CLOUDS BELOW 12,000 FEET WITH NO
SIGNIFICANT WEATHER AND/OR OBSTRUCTIONS TO VISIBILITY.


CITY           SKY/WX    TMP DP  RH WIND       PRES   REMARKS
WILLISTON      SUNNY     94  48  20 W6        29.90F HX  90
MINOT          FAIR      86  50  28 CALM      29.95F
MINOT AFB      FAIR      84  53  34 E9        29.93F
BISMARCK       SUNNY     85  56  37 SE9       29.98F
DICKINSON      SUNNY     89  51  27 E9        29.95F
GARRISON         N/A     84  53  34 SE6       29.96F
HETTINGER ARPT SUNNY     91  48  22 S10       29.98F
JAMESTOWN      FAIR      79  59  50 NE6       29.99F
HAZEN            N/A     88  52  29 SE9       29.96F
LINTON           N/A    N/A N/A N/A CALM      30.01F
MANDAN         FAIR      82  55  39 E6        29.99F
STANLEY        FAIR      84  54  34 SE3G15    29.97F
TIOGA          FAIR      88  46  23 VRB5      29.95F
WATFORD CITY   FAIR      91  48  22 E5        29.91F
$$

CITY           SKY/WX    TMP DP  RH WIND       PRES   REMARKS
GRAND FORKS    PTSUNNY   80  62  54 CALM      29.97F
GRAND FORKS AF FAIR      77  60  55 CALM      29.99S
DEVILS LAKE    FAIR      77  58  51 SW6       30.00F
FARGO          FAIR      78  61  55 CALM      29.98F
CAVALIER       FAIR      77  63  61 VRB5      29.97F
GRAFTON        FAIR      77  61  57 SE3       29.99S
GWINNER        CLEAR     75  61  60 CALM      30.00S
LANGDON        FAIR      77  61  57 CALM      30.00F
ROLLA            N/A     75  59  57 VRB5      30.00F
$$

CITY           SKY/WX    TMP DP  RH WIND       PRES   REMARKS
ABERDEEN       SUNNY     79  60  52 NE7       30.00S
MOBRIDGE       SUNNY     83  56  39 E5        29.96F
BUFFALO          N/A     91  46  21 S7        29.91F
RAPID CITY     SUNNY     92  45  19 SE12      29.99F
GLASGOW        SUNNY     97  39  13 SE15G26   29.81F HX  92
SIDNEY         SUNNY     94  51  23 SE5       29.88F HX  91
WOLF POINT     SUNNY     99  40  13 SW7       29.83F HX  94
GLENDIVE       SUNNY     93  44  18 SE3       29.90F
MILES CITY     SUNNY     98  34  10 SE8G16    29.87F HX  92
BAKER          SUNNY    N/A N/A N/A S14G20    29.94F
$$

CITY           SKY/WX    TMP DP  RH WIND       PRES   REMARKS
BILLINGS       PTSUNNY   94  29  10 VRB3      29.91F
GREAT FALLS    SUNNY     96  37  12 SW13G18   29.85F HX  91
REGINA         MOSUNNY   91  52  25 SE17      29.82F
ESTEVAN        MOSUNNY   84  55  37 S2        29.91F
$$




USA.gov is the U.S. government's official web portal to all federal, state and local government web resources and services.